M I D A S
Marine Information and Data Acquisition System
Tripno 507 of the Zeeleeuw from 2003-05-28 06:13:01 to 2003-05-28 11:02:06
Back to CruiseResearch ActivitiesStationsMapUnderway DataData graphs

EquipmentUnitsComments
TimeDGPSUTC
LatitudeDGPSDM.mWGS84
LongitudeDGPSDM.mWGS84
SpeedMeteo Stationm/sRelative wind speed
DirectionMeteo StationdegRelative wind direction
TemperatureMeteo Stationdeg CelciusAir temperature
PressureMeteo StationPaAtmospheric pressure
HumidityMeteo Station%Relative humidity
Missing or incorrect values are displayed as -999
Metereological data collected by the RV Zeeleeuw from 2003-05-28 06:13:01 to 2003-05-28 11:02:06
                                                                                    Next 1000 lines
Time Latitude Longitude Speed Direction Temperature Pressure Humidity
2003-05-28 06:13:11 51°13.61 2°56.09 1.3 49 15.5 102400 77
2003-05-28 06:13:17 51°13.61 2°56.09 2.1 75 15.4 102400 77
2003-05-28 06:13:21 51°13.61 2°56.09 1.9 73 15.4 102400 77
2003-05-28 06:13:25 51°13.61 2°56.09 2.2 72 15.5 102400 77
2003-05-28 06:13:31 51°13.61 2°56.09 2.4 73 15.5 102400 77
2003-05-28 06:13:37 51°13.61 2°56.09 2.2 69 15.5 102400 77
2003-05-28 06:13:41 51°13.61 2°56.09 2.2 64 15.5 102400 77
2003-05-28 06:13:45 51°13.61 2°56.09 2.5 71 15.5 102400 77
2003-05-28 06:13:51 51°13.61 2°56.09 1.8 98 15.5 102400 77
2003-05-28 06:13:57 51°13.61 2°56.09 1.5 95 15.5 102400 77
2003-05-28 06:14:01 51°13.61 2°56.09 1.7 89 15.5 102400 77
2003-05-28 06:14:05 51°13.61 2°56.09 1.9 95 15.5 102400 77
2003-05-28 06:14:11 51°13.61 2°56.09 2 94 15.5 102400 77
2003-05-28 06:14:17 51°13.61 2°56.09 1.9 93 15.5 102400 77
2003-05-28 06:14:21 51°13.61 2°56.09 1.9 85 15.5 102400 77
2003-05-28 06:14:25 51°13.61 2°56.09 1.1 95 15.5 102400 77
2003-05-28 06:14:31 51°13.61 2°56.09 1.8 92 15.5 102400 77
2003-05-28 06:14:37 51°13.61 2°56.09 1.1 80 15.5 102400 77
2003-05-28 06:14:41 51°13.61 2°56.09 1 82 15.5 102400 77
2003-05-28 06:14:45 51°13.61 2°56.09 1.2 73 15.5 102400 77
2003-05-28 06:14:51 51°13.61 2°56.09 2.1 77 15.5 102400 77
2003-05-28 06:14:57 51°13.61 2°56.09 1.8 65 15.5 102400 77
2003-05-28 06:15:01 51°13.61 2°56.09 1.6 344 15.5 102400 77
2003-05-28 06:15:07 51°13.61 2°56.09 1.4 75 15.5 102400 77
2003-05-28 06:15:11 51°13.61 2°56.09 1.3 96 15.5 102400 77
2003-05-28 06:15:17 51°13.61 2°56.09 1.5 79 15.5 102400 77
2003-05-28 06:15:21 51°13.61 2°56.09 1.4 67 15.5 102400 77
2003-05-28 06:15:27 51°13.61 2°56.09 1.5 82 15.5 102390 77
2003-05-28 06:15:31 51°13.61 2°56.09 1.7 73 15.5 102390 77
2003-05-28 06:15:37 51°13.61 2°56.09 2.4 155 15.5 102390 77
2003-05-28 06:15:41 51°13.61 2°56.09 2.4 62 15.5 102400 77
2003-05-28 06:15:45 51°13.61 2°56.09 2.1 57 15.5 102400 77
2003-05-28 06:15:51 51°13.61 2°56.08 2.6 60 15.6 102400 77
2003-05-28 06:15:57 51°13.61 2°56.08 2.1 52 15.6 102400 77
2003-05-28 06:16:01 51°13.61 2°56.07 1.8 46 15.6 102400 77
2003-05-28 06:16:07 51°13.61 2°56.07 2.2 39 15.6 102400 77
2003-05-28 06:16:13 51°13.61 2°56.06 1.4 23 15.5 102400 77
2003-05-28 06:16:19 51°13.61 2°56.06 1.4 24 15.6 102400 76
2003-05-28 06:16:23 51°13.62 2°56.05 1.5 18 15.6 102400 76
2003-05-28 06:16:29 51°13.62 2°56.04 1 5 15.6 102400 76
2003-05-28 06:16:33 51°13.62 2°56.04 1.2 358 15.6 102400 76
2003-05-28 06:16:39 51°13.62 2°56.03 1.7 334 15.6 102400 76
2003-05-28 06:16:45 51°13.62 2°56.02 1.8 325 15.6 102390 76
2003-05-28 06:16:49 51°13.63 2°56.01 2 328 15.5 102400 76
2003-05-28 06:16:55 51°13.63 2°56 2.1 331 15.5 102400 76
2003-05-28 06:17:01 51°13.63 2°55.99 1.6 335 15.5 102390 76
2003-05-28 06:17:05 51°13.63 2°55.98 2.2 355 15.5 102390 76
2003-05-28 06:17:11 51°13.63 2°55.97 2.3 355 15.5 102390 76
2003-05-28 06:17:17 51°13.64 2°55.96 2.6 343 15.5 102390 76
2003-05-28 06:17:21 51°13.64 2°55.95 2.7 320 15.5 102400 76
2003-05-28 06:17:25 51°13.64 2°55.94 2.6 349 15.5 102400 76
2003-05-28 06:17:31 51°13.64 2°55.93 1.8 3 15.5 102400 76
2003-05-28 06:17:37 51°13.65 2°55.92 1.5 10 15.5 102400 76
2003-05-28 06:17:41 51°13.65 2°55.91 2.2 354 15.5 102400 76
2003-05-28 06:17:45 51°13.65 2°55.9 1.9 356 15.4 102400 76
2003-05-28 06:17:51 51°13.65 2°55.89 2.1 2 15.4 102400 76
2003-05-28 06:17:57 51°13.66 2°55.88 2.4 351 15.4 102400 76
2003-05-28 06:18:01 51°13.66 2°55.87 2.5 349 15.4 102400 76
2003-05-28 06:18:07 51°13.66 2°55.86 2.4 355 15.4 102400 76
2003-05-28 06:18:11 51°13.67 2°55.85 2   15.4 102400 76
2003-05-28 06:18:17 51°13.67 2°55.84 1.9 329 15.4 102400 76
2003-05-28 06:18:21 51°13.67 2°55.84 1.8 343 15.3 102400 76
2003-05-28 06:18:25 51°13.67 2°55.83 1.2 358 15.3 102400 76
2003-05-28 06:18:29 51°13.67 2°55.83 1.1 38 15.3 102390 76
2003-05-28 06:18:35 51°13.67 2°55.82 1.2   15.3 102390 76
2003-05-28 06:18:39 51°13.68 2°55.82 1.7 71 15.3 102390 76
2003-05-28 06:18:43 51°13.68 2°55.82 1.9 85 15.3 102400 76
2003-05-28 06:18:47 51°13.68 2°55.82 1.8 78 15.3 102390 76
2003-05-28 06:18:51 51°13.68 2°55.82 1.6 81 15.3 102390 76
2003-05-28 06:18:57 51°13.68 2°55.82 1.4 79 15.3 102400 76
2003-05-28 06:19:01 51°13.68 2°55.82 1.3 70 15.3 102400 76
2003-05-28 06:19:07 51°13.68 2°55.82 1.8 71 15.3 102400 76
2003-05-28 06:19:11 51°13.68 2°55.82 1.8 84 15.3 102400 76
2003-05-28 06:19:17 51°13.68 2°55.82 1.2 73 15.3 102390 76
2003-05-28 06:19:21 51°13.68 2°55.81 1.4 68 15.3 102390 76
2003-05-28 06:19:25 51°13.68 2°55.81 1.2 64 15.3 102390 76
2003-05-28 06:19:33 51°13.68 2°55.8 1.2 61 15.3 102390 76
2003-05-28 06:19:37 51°13.68 2°55.8 0.7 45 15.3 102390 76
2003-05-28 06:19:43 51°13.68 2°55.79 0.7 129 15.3 102400 76
2003-05-28 06:19:49 51°13.68 2°55.79 0.5 17 15.3 102390 77
2003-05-28 06:19:53 51°13.68 2°55.78 0.3 7 15.3 102390 77
2003-05-28 06:19:59 51°13.68 2°55.77 0.1 6 15.3 102400 77
2003-05-28 06:20:05 51°13.68 2°55.77 0.1 5 15.3 102400 77
2003-05-28 06:20:09 51°13.68 2°55.76 0.1 4 15.3 102400 77
2003-05-28 06:20:15 51°13.68 2°55.76 0.3 5 15.3 102400 77
2003-05-28 06:20:21 51°13.68 2°55.75 0.5 14 15.3 102400 77
2003-05-28 06:20:25 51°13.68 2°55.75 0.8 88 15.3 102400 77
2003-05-28 06:20:31 51°13.68 2°55.75 0.9 95 15.3 102400 77
2003-05-28 06:20:35 51°13.68 2°55.75 0.8 85 15.3 102400 77
2003-05-28 06:20:39 51°13.68 2°55.75 1.3 75 15.3 102400 77
2003-05-28 06:20:43 51°13.68 2°55.75 1.6 74 15.4 102400 77
2003-05-28 06:20:49 51°13.68 2°55.75 1.9 82 15.3 102400 76
2003-05-28 06:20:53 51°13.68 2°55.75 1.6 79 15.3 102400 76
2003-05-28 06:20:57 51°13.69 2°55.76 1.7 76 15.3 102390 76
2003-05-28 06:21:03 51°13.69 2°55.76 1.3 82 15.3 102390 76
2003-05-28 06:21:07 51°13.69 2°55.76 1.1 74 15.3 102390 76
2003-05-28 06:21:11 51°13.69 2°55.76 0.8 104 15.3 102390 76
2003-05-28 06:21:17 51°13.69 2°55.76 0.8 104 15.3 102400 76
2003-05-28 06:21:21 51°13.69 2°55.75 0.5 145 15.3 102400 76
2003-05-28 06:21:27 51°13.68 2°55.75 1.2 156 15.3 102390 76
2003-05-28 06:21:31 51°13.68 2°55.75 1.2 156 15.3 102390 76
2003-05-28 06:21:37 51°13.68 2°55.75 0.6 151 15.3 102390 76
2003-05-28 06:21:43 51°13.68 2°55.75 0.7 140 15.3 102400 76
2003-05-28 06:21:49 51°13.68 2°55.74 0.9 103 15.3 102400 76
2003-05-28 06:21:53 51°13.68 2°55.74 1.2 95 15.3 102400 76
2003-05-28 06:21:59 51°13.68 2°55.74 1.2 90 15.3 102400 76
2003-05-28 06:22:05 51°13.68 2°55.74 1 87 15.3 102400 76
2003-05-28 06:22:09 51°13.68 2°55.74 1.3 85 15.3 102400 76
2003-05-28 06:22:15 51°13.68 2°55.74 1.4 81 15.3 102400 76
2003-05-28 06:22:19 51°13.68 2°55.74 1.5 75 15.3 102400 76
2003-05-28 06:22:25 51°13.69 2°55.74 1.2 78 15.3 102400 76
2003-05-28 06:22:31 51°13.69 2°55.74 1.3 63 15.3 102400 76
2003-05-28 06:22:35 51°13.69 2°55.74 1.2 59 15.3 102400 76
2003-05-28 06:22:41 51°13.69 2°55.74 1.3 46 15.3 102400 76
2003-05-28 06:22:47 51°13.7 2°55.74 1.5 40 15.2 102400 76
2003-05-28 06:22:51 51°13.7 2°55.74 2 28 15.2 102400 76
2003-05-28 06:22:55 51°13.71 2°55.73 2.4 10 15.2 102400 76
2003-05-28 06:22:59 51°13.71 2°55.73 3.3 19 15.2 102390 76
2003-05-28 06:23:03 51°13.71 2°55.73 3.4 11 15.2 102390 76
2003-05-28 06:23:09 51°13.72 2°55.72 3.1 6 15.2 102390 76
2003-05-28 06:23:13 51°13.73 2°55.72 3.3 16 15.2 102390 76
2003-05-28 06:23:17 51°13.73 2°55.71 3.5 5 15.2 102400 76
2003-05-28 06:23:21 51°13.74 2°55.71 3.2 357 15.2 102400 76
2003-05-28 06:23:27 51°13.75 2°55.7 3.5 357 15.2 102400 76
2003-05-28 06:23:31 51°13.75 2°55.7 3.8 352 15.2 102400 76
2003-05-28 06:23:37 51°13.76 2°55.69 3.3 10 15.2 102400 76
2003-05-28 06:23:41 51°13.77 2°55.69 3.7 5 15.2 102390 76
2003-05-28 06:23:47 51°13.78 2°55.68 4.3 358 15.1 102390 76
2003-05-28 06:23:49 51°13.78 2°55.68 3.7 356 15.1 102390 76
2003-05-28 06:23:57 51°13.79 2°55.67 4.3 5 15.1 102390 77
2003-05-28 06:24:01 51°13.8 2°55.66 4.4 359 15.1 102390 77
2003-05-28 06:24:07 51°13.81 2°55.65 3.2 355 15.1 102390 77
2003-05-28 06:24:11 51°13.82 2°55.65 3.3 344 15.1 102390 77
2003-05-28 06:24:17 51°13.83 2°55.64 4.6 354 15.1 102390 77
2003-05-28 06:24:21 51°13.84 2°55.64 4.5 352 15.1 102390 77
2003-05-28 06:24:25 51°13.85 2°55.63 4.4 352 15.1 102390 77
2003-05-28 06:24:31 51°13.86 2°55.62 4.4 352 15.1 102390 77
2003-05-28 06:24:37 51°13.87 2°55.61 4.6 7 15.1 102390 77
2003-05-28 06:24:41 51°13.88 2°55.61 4.7 1 15.1 102390 77
2003-05-28 06:24:45 51°13.88 2°55.6 4.3 5 15.1 102400 77
2003-05-28 06:24:51 51°13.9 2°55.59 4.4 3 15.1 102400 77
2003-05-28 06:24:57 51°13.91 2°55.58 4.6 354 15.1 102400 77
2003-05-28 06:25:01 51°13.92 2°55.58 4.4 355 15.1 102400 77
2003-05-28 06:25:05 51°13.92 2°55.57 4.8 357 15.1 102400 77
2003-05-28 06:25:11 51°13.94 2°55.56 4.5 358 15.1 102390 77
2003-05-28 06:25:17 51°13.95 2°55.55 4.7 359 15.1 102400 77
2003-05-28 06:25:21 51°13.96 2°55.55 4.8 2 15.1 102400 77
2003-05-28 06:25:25 51°13.96 2°55.54 5.2 360 15.1 102390 77
2003-05-28 06:25:31 51°13.98 2°55.53 5.1   15.1 102390 77
2003-05-28 06:25:37 51°13.99 2°55.52 5.1 4 15.1 102390 77
2003-05-28 06:25:41 51°14 2°55.52 4.8 6 15.1 102390 77
2003-05-28 06:25:45 51°14 2°55.51 4.8 359 15 102390 77
2003-05-28 06:25:49 51°14.01 2°55.51 4.8 359 15 102390 77
2003-05-28 06:25:57 51°14.03 2°55.49 4.4 1 15.1 102390 77
2003-05-28 06:26:01 51°14.04 2°55.49 5.1 359 15.1 102390 77
2003-05-28 06:26:05 51°14.05 2°55.48 4.7 3 15 102390 77
2003-05-28 06:26:15 51°14.06 2°55.46 5 353 15 102390 77
2003-05-28 06:26:19 51°14.07 2°55.46 5.2 351 15 102390 77
2003-05-28 06:26:25 51°14.08 2°55.45 5.3 1 15 102390 77
2003-05-28 06:26:29 51°14.09 2°55.44 5.2 358 15 102390 78
2003-05-28 06:26:33 51°14.1 2°55.43 5.3 1 15 102390 78
2003-05-28 06:26:39 51°14.11 2°55.42 5.1 358 15.1 102400 78
2003-05-28 06:26:45 51°14.12 2°55.41 5.9 1 15.1 102400 78
2003-05-28 06:26:49 51°14.13 2°55.41 5.8   15.1 102390 78
2003-05-28 06:26:55 51°14.14 2°55.39 5.6 2 15.1 102390 78
2003-05-28 06:26:59 51°14.15 2°55.39 5.4 3 15 102400 78
2003-05-28 06:27:05 51°14.16 2°55.38 5.5 357 15 102400 78
2003-05-28 06:27:09 51°14.17 2°55.37 5.5   15.1 102400 78
2003-05-28 06:27:15 51°14.18 2°55.36 5.2 357 15.1 102400 78
2003-05-28 06:27:21 51°14.19 2°55.35 5.4 357 15.1 102400 78
2003-05-28 06:27:25 51°14.2 2°55.34 5.1 354 15.1 102400 78
2003-05-28 06:27:29 51°14.21 2°55.33 5.1 350 15.1 102400 79
2003-05-28 06:27:35 51°14.22 2°55.32 5.3 349 15.1 102400 79
2003-05-28 06:27:39 51°14.22 2°55.31 5.3 353 15 102400 79
2003-05-28 06:27:45 51°14.24 2°55.29 4.9 345 15 102400 79
2003-05-28 06:27:55 51°14.25 2°55.27 4.6 344 15 102400 79
2003-05-28 06:27:59 51°14.26 2°55.26 4.7 347 15 102400 79
2003-05-28 06:28:05 51°14.27 2°55.24 4.5 345 15 102400 79
2003-05-28 06:28:09 51°14.27 2°55.23 4.8 348 15 102390 79
2003-05-28 06:28:15 51°14.28 2°55.22 4.8 346 15 102390 79
2003-05-28 06:28:19 51°14.29 2°55.21 4.5 349 15 102400 79
2003-05-28 06:28:25 51°14.29 2°55.19 4.8 346 15 102400 79
2003-05-28 06:28:29 51°14.3 2°55.18 4.7 345 15 102400 80
2003-05-28 06:28:35 51°14.31 2°55.16 4.7 346 15 102400 80
2003-05-28 06:28:39 51°14.31 2°55.15 4.6 341 14.9 102400 80
2003-05-28 06:28:45 51°14.32 2°55.14 4.3 349 14.9 102400 80
2003-05-28 06:28:49 51°14.33 2°55.12 4.3 341 14.9 102400 80
2003-05-28 06:28:55 51°14.33 2°55.11 4.3 328 14.9 102400 80
2003-05-28 06:28:59 51°14.34 2°55.1 3.7 329 14.9 102400 80
2003-05-28 06:29:05 51°14.35 2°55.08 5.2 346 14.9 102400 80
2003-05-28 06:29:09 51°14.35 2°55.07 5 349 14.9 102400 80
2003-05-28 06:29:15 51°14.36 2°55.05 5 347 14.9 102400 80
2003-05-28 06:29:19 51°14.36 2°55.04 5.3 346 14.8 102400 81
2003-05-28 06:29:25 51°14.37 2°55.02 5.1 338 14.8 102400 81
2003-05-28 06:29:29 51°14.38 2°55 5.5 338 14.8 102400 81
2003-05-28 06:29:33 51°14.38 2°54.99 5 332 14.8 102400 81
2003-05-28 06:29:41 51°14.39 2°54.95 5.1 329 14.8 102400 81
2003-05-28 06:29:45 51°14.39 2°54.93 5.1 325 14.8 102400 81
2003-05-28 06:29:49 51°14.39 2°54.92 5.1 322 14.7 102390 81
2003-05-28 06:29:55 51°14.39 2°54.89 4.9 319 14.7 102390 81
2003-05-28 06:29:59 51°14.39 2°54.87 5 316 14.7 102400 81
2003-05-28 06:30:05 51°14.39 2°54.84 5.1 317 14.7 102400 81
2003-05-28 06:30:09 51°14.4 2°54.82 5.1 317 14.7 102400 81
2003-05-28 06:30:15 51°14.4 2°54.79 5 318 14.7 102400 81
2003-05-28 06:30:21 51°14.4 2°54.76 5 317 14.6 102400 81
2003-05-28 06:30:25 51°14.4 2°54.74 5.3 317 14.6 102400 81
2003-05-28 06:30:29 51°14.4 2°54.71 5.2 314 14.6 102400 81
2003-05-28 06:30:35 51°14.4 2°54.68 5.3 317 14.6 102400 81
2003-05-28 06:30:39 51°14.4 2°54.66 5.2 315 14.6 102400 81
2003-05-28 06:30:45 51°14.41 2°54.63 5.2 313 14.6 102400 81
2003-05-28 06:30:49 51°14.41 2°54.61 5.3 313 14.5 102400 82
2003-05-28 06:30:55 51°14.41 2°54.57 5.2 312 14.5 102400 82
2003-05-28 06:30:59 51°14.41 2°54.55 5.3 309 14.5 102400 82
2003-05-28 06:31:05 51°14.41 2°54.52 4.8 302 14.5 102400 82
2003-05-28 06:31:09 51°14.41 2°54.5 4.9 297 14.5 102400 82
2003-05-28 06:31:15 51°14.41 2°54.46 4.2 292 14.5 102400 82
2003-05-28 06:31:19 51°14.4 2°54.44 4.4 290 14.4 102390 82
2003-05-28 06:31:25 51°14.4 2°54.41 4.2 290 14.4 102390 82
2003-05-28 06:31:29 51°14.4 2°54.39 4.2 289 14.4 102400 82
2003-05-28 06:31:35 51°14.39 2°54.36 4.7 284 14.4 102400 82
2003-05-28 06:31:39 51°14.39 2°54.33 4.8 283 14.4 102400 82
2003-05-28 06:31:45 51°14.38 2°54.3 4.5 276 14.4 102400 82
2003-05-28 06:31:49 51°14.37 2°54.28 4.4 276 14.4 102400 83
2003-05-28 06:31:55 51°14.37 2°54.25 4.2 272 14.4 102400 83
2003-05-28 06:31:59 51°14.36 2°54.23 4.5 272 14.4 102400 83
2003-05-28 06:32:05 51°14.35 2°54.2 4.3 268 14.4 102400 83
2003-05-28 06:32:09 51°14.34 2°54.18 4.2 269 14.4 102400 83
2003-05-28 06:32:13 51°14.34 2°54.16 4.3 267 14.4 102400 83
2003-05-28 06:32:39 51°14.29 2°54.02 4.8 229 14.4 102400 83
2003-05-28 06:32:45 51°14.28 2°53.99 5.1 263 14.4 102400 83
2003-05-28 06:32:49 51°14.28 2°53.97 5 263 14.4 102400 83
2003-05-28 06:32:53 51°14.27 2°53.95 5.1 265 14.4 102400 83
2003-05-28 06:32:59 51°14.26 2°53.92 5.1 264 14.4 102400 83
2003-05-28 06:33:03 51°14.25 2°53.89 5.1 264 14.4 102400 83
2003-05-28 06:33:09 51°14.24 2°53.86 5.4 267 14.4 102400 84
2003-05-28 06:33:13 51°14.23 2°53.84 5.2 265 14.4 102400 84
2003-05-28 06:33:17 51°14.23 2°53.82 5.2 264 14.4 102400 84
2003-05-28 06:33:39 51°14.19 2°53.69 4.7 227 14.4 102400 84
2003-05-28 06:33:43 51°14.18 2°53.67 4.6 261 14.4 102400 84
2003-05-28 06:33:49 51°14.17 2°53.64 4.6 260 14.4 102400 84
2003-05-28 06:33:53 51°14.16 2°53.62 4.4 261 14.4 102400 84
2003-05-28 06:33:59 51°14.15 2°53.58 4.5 261 14.4 102400 84
2003-05-28 06:34:05 51°14.14 2°53.55 4.4 262 14.4 102400 84
2003-05-28 06:34:13 51°14.12 2°53.5 4.4 265 14.4 102400 84
2003-05-28 06:34:21 51°14.11 2°53.46 4.2 268 14.4 102400 84
2003-05-28 06:34:25 51°14.1 2°53.44 4.3 266 14.4 102400 84
2003-05-28 06:34:29 51°14.09 2°53.41 4.3 266 14.4 102400 84
2003-05-28 06:34:35 51°14.08 2°53.38 4.4 266 14.4 102400 84
2003-05-28 06:34:39 51°14.07 2°53.35 4.3 266 14.4 102400 84
2003-05-28 06:34:45 51°14.06 2°53.32 4.4 264 14.4 102400 84
2003-05-28 06:34:55 51°14.05 2°53.26 4.4 257 14.4 102400 84
2003-05-28 06:34:59 51°14.04 2°53.24 4.3 257 14.4 102400 84
2003-05-28 06:35:05 51°14.03 2°53.21 4.4 254 14.4 102400 84
2003-05-28 06:35:09 51°14.02 2°53.18 4.5 256 14.4 102400 84
2003-05-28 06:35:13 51°14.01 2°53.16 4.4 254 14.4 102400 84
2003-05-28 06:35:17 51°14 2°53.14 4.3 255 14.4 102400 84
2003-05-28 06:35:25 51°13.98 2°53.1 4.4 257 14.4 102400 84
2003-05-28 06:35:29 51°13.97 2°53.07 4.4 258 14.4 102400 84
2003-05-28 06:35:35 51°13.96 2°53.04 4.4 260 14.4 102400 84
2003-05-28 06:35:39 51°13.95 2°53.02 4.5 260 14.4 102400 84
2003-05-28 06:35:45 51°13.94 2°52.98 4.6 262 14.4 102400 84
2003-05-28 06:35:49 51°13.93 2°52.96 4.6 260 14.4 102400 84
2003-05-28 06:35:53 51°13.93 2°52.94 4.7 259 14.4 102400 84
2003-05-28 06:36:01 51°13.91 2°52.89 4.8 259 14.4 102400 84
2003-05-28 06:36:05 51°13.9 2°52.87 5.1 258 14.4 102400 84
2003-05-28 06:36:09 51°13.89 2°52.84 5.1 257 14.4 102400 84
2003-05-28 06:36:15 51°13.88 2°52.81 4.8 257 14.4 102400 84
2003-05-28 06:36:19 51°13.87 2°52.79 4.8 258 14.4 102400 84
2003-05-28 06:36:25 51°13.86 2°52.75 4.9 257 14.4 102400 84
2003-05-28 06:36:35 51°13.84 2°52.7 5 259 14.4 102400 84
2003-05-28 06:36:39 51°13.83 2°52.68 4.7 258 14.4 102400 84
2003-05-28 06:36:45 51°13.82 2°52.64 5 259 14.4 102400 84
2003-05-28 06:36:49 51°13.81 2°52.62 5.2 261 14.4 102400 84
2003-05-28 06:36:53 51°13.8 2°52.6 5.1 262 14.4 102400 84
2003-05-28 06:36:57 51°13.79 2°52.57 4.8 262 14.4 102400 84
2003-05-28 06:37:05 51°13.78 2°52.53 5.2 262 14.4 102400 84
2003-05-28 06:37:09 51°13.77 2°52.51 5.1 260 14.4 102400 84
2003-05-28 06:37:15 51°13.76 2°52.47 5.4 261 14.4 102400 84
2003-05-28 06:37:17 51°13.75 2°52.46 5.1 259 14.4 102400 84
2003-05-28 06:37:25 51°13.74 2°52.41 5.4 260 14.4 102400 84
2003-05-28 06:37:29 51°13.73 2°52.39 5.6 257 14.4 102400 84
2003-05-28 06:37:35 51°13.71 2°52.36 5.5 258 14.4 102400 84
2003-05-28 06:37:39 51°13.71 2°52.33 5.6 258 14.4 102400 84
2003-05-28 06:37:45 51°13.69 2°52.3 5.8 258 14.4 102400 84
2003-05-28 06:37:49 51°13.68 2°52.28 5.5 258 14.4 102400 84
2003-05-28 06:37:55 51°13.67 2°52.24 5.6 260 14.4 102400 84
2003-05-28 06:37:59 51°13.66 2°52.22 5.4 262 14.4 102400 84
2003-05-28 06:38:05 51°13.65 2°52.19 5.5 261 14.4 102400 84
2003-05-28 06:38:09 51°13.64 2°52.16 5.6 261 14.4 102400 84
2003-05-28 06:38:15 51°13.63 2°52.13 5.2 263 14.4 102400 84
2003-05-28 06:38:19 51°13.62 2°52.11 5.6 262 14.4 102400 84
2003-05-28 06:38:25 51°13.61 2°52.07 5.2 259 14.4 102400 84
2003-05-28 06:38:29 51°13.6 2°52.05 5.1 261 14.4 102400 84
2003-05-28 06:38:33 51°13.59 2°52.03 5.1 261 14.4 102400 84
2003-05-28 06:38:39 51°13.58 2°51.99 5.1 261 14.4 102400 84
2003-05-28 06:38:45 51°13.57 2°51.96 5.1 261 14.4 102400 84
2003-05-28 06:38:49 51°13.56 2°51.94 5.1 261 14.4 102400 84
2003-05-28 06:38:55 51°13.55 2°51.9 5.1 261 14.4 102400 84
2003-05-28 06:38:59 51°13.54 2°51.88 5.1 261 14.4 102400 84
2003-05-28 06:39:05 51°13.53 2°51.84 5.1 261 14.4 102400 84
2003-05-28 06:39:09 51°13.52 2°51.82 5.1 261 14.4 102400 84
2003-05-28 06:39:15 51°13.51 2°51.79 5.1 261 14.4 102400 84
2003-05-28 06:39:19 51°13.5 2°51.76 5.1 261 14.4 102400 84
2003-05-28 06:39:25 51°13.49 2°51.73 5.1 261 14.4 102400 84
2003-05-28 06:39:29 51°13.48 2°51.71 5.1 261 14.4 102400 84
2003-05-28 06:39:35 51°13.47 2°51.67 5.1 261 14.4 102400 84
2003-05-28 06:39:39 51°13.46 2°51.65 5.1 261 14.4 102400 84
2003-05-28 06:39:45 51°13.45 2°51.62 5.1 261 14.4 102400 84
2003-05-28 06:39:49 51°13.44 2°51.59 5.1 261 14.4 102400 84
2003-05-28 06:39:55 51°13.43 2°51.56 5.1 261 14.4 102400 84
2003-05-28 06:39:59 51°13.42 2°51.54 5.1 261 14.4 102400 84
2003-05-28 06:40:05 51°13.41 2°51.5 5.1 261 14.4 102400 84
2003-05-28 06:40:09 51°13.4 2°51.48 5.1 261 14.4 102400 84
2003-05-28 06:40:15 51°13.38 2°51.44 5.1 261 14.4 102400 84
2003-05-28 06:40:19 51°13.38 2°51.42 5.1 261 14.4 102400 84
2003-05-28 06:40:25 51°13.36 2°51.39 5.1 261 14.4 102400 84
2003-05-28 06:40:29 51°13.36 2°51.36 5.1 261 14.4 102400 84
2003-05-28 06:40:33 51°13.35 2°51.34 5.1 261 14.4 102400 84
2003-05-28 06:40:41 51°13.33 2°51.3 5.1 261 14.4 102400 84
2003-05-28 06:40:45 51°13.32 2°51.27 5.1 261 14.4 102400 84
2003-05-28 06:40:49 51°13.31 2°51.25 5.1 261 14.4 102400 84
2003-05-28 06:40:55 51°13.3 2°51.22 5.1 261 14.4 102400 84
2003-05-28 06:40:59 51°13.29 2°51.19 5.1 261 14.4 102400 84
2003-05-28 06:41:05 51°13.28 2°51.16 5.1 261 14.4 102400 84
2003-05-28 06:41:09 51°13.27 2°51.13 5.1 261 14.4 102400 84
2003-05-28 06:41:15 51°13.26 2°51.1 5.1 261 14.4 102400 84
2003-05-28 06:41:19 51°13.25 2°51.08 5.1 261 14.4 102400 84
2003-05-28 06:41:25 51°13.24 2°51.04 5.1 261 14.4 102400 84
2003-05-28 06:41:29 51°13.23 2°51.02 5.1 261 14.4 102400 84
2003-05-28 06:41:35 51°13.22 2°50.99 5.1 261 14.4 102400 84
2003-05-28 06:41:39 51°13.21 2°50.96 5.1 261 14.4 102400 84
2003-05-28 06:41:45 51°13.2 2°50.93 5.1 261 14.4 102400 84
2003-05-28 06:41:49 51°13.19 2°50.9 5.1 261 14.4 102400 84
2003-05-28 06:41:55 51°13.18 2°50.87 5.1 261 14.4 102400 84
2003-05-28 06:41:59 51°13.17 2°50.85 5.1 261 14.4 102400 84
2003-05-28 06:42:05 51°13.16 2°50.81 5.1 261 14.4 102400 84
2003-05-28 06:42:09 51°13.15 2°50.79 5.1 261 14.4 102400 84
2003-05-28 06:42:15 51°13.14 2°50.75 5.1 261 14.4 102400 84
2003-05-28 06:42:21 51°13.13 2°50.72 5.1 261 14.4 102400 84
2003-05-28 06:42:25 51°13.12 2°50.7 5.1 261 14.4 102400 84
2003-05-28 06:42:29 51°13.11 2°50.67 5.1 261 14.4 102400 84
2003-05-28 06:42:35 51°13.1 2°50.64 5.1 261 14.4 102400 84
2003-05-28 06:42:39 51°13.09 2°50.61 5.1 261 14.4 102400 84
2003-05-28 06:42:45 51°13.08 2°50.58 5.1 261 14.4 102400 84
2003-05-28 06:42:55 51°13.06 2°50.52 5.1 261 14.4 102400 84
2003-05-28 06:42:59 51°13.05 2°50.5 5.1 261 14.4 102400 84
2003-05-28 06:43:05 51°13.04 2°50.46 5.1 261 14.4 102400 84
2003-05-28 06:43:09 51°13.03 2°50.44 5.1 261 14.4 102400 84
2003-05-28 06:43:13 51°13.02 2°50.42 5.1 261 14.4 102400 84
2003-05-28 06:43:39 51°12.97 2°50.27 5.1 261 14.4 102400 84
2003-05-28 06:43:45 51°12.95 2°50.23 5.1 261 14.4 102400 84
2003-05-28 06:43:49 51°12.95 2°50.21 5.1 261 14.4 102400 84
2003-05-28 06:43:53 51°12.94 2°50.19 5.1 261 14.4 102400 84
2003-05-28 06:43:57 51°12.93 2°50.16 5.1 261 14.4 102400 84
2003-05-28 06:44:05 51°12.91 2°50.12 5.1 261 14.4 102400 84
2003-05-28 06:44:09 51°12.91 2°50.09 5.1 261 14.4 102400 84
2003-05-28 06:44:13 51°12.9 2°50.07 5.1 261 14.4 102400 84
2003-05-28 06:44:17 51°12.89 2°50.05 5.1 261 14.4 102400 84
2003-05-28 06:44:25 51°12.87 2°50 5.1 261 14.4 102400 84
2003-05-28 06:44:29 51°12.86 2°49.98 5.1 261 14.4 102400 84
2003-05-28 06:44:33 51°12.86 2°49.95 5.1 261 14.4 102400 84
2003-05-28 06:44:39 51°12.84 2°49.92 5.1 261 14.4 102400 84
2003-05-28 06:44:41 51°12.84 2°49.91 5.1 261 14.4 102400 84
2003-05-28 06:44:49 51°12.82 2°49.86 5.1 261 14.4 102400 84
2003-05-28 06:44:53 51°12.82 2°49.84 5.1 261 14.4 102400 84
2003-05-28 06:44:59 51°12.8 2°49.8 5.1 261 14.4 102400 84
2003-05-28 06:45:05 51°12.79 2°49.77 5.1 261 14.4 102400 84
2003-05-28 06:45:09 51°12.78 2°49.75 5.1 261 14.4 102400 84
2003-05-28 06:45:13 51°12.77 2°49.72 5.1 261 14.4 102400 84
2003-05-28 06:45:17 51°12.77 2°49.7 5.1 261 14.4 102400 84
2003-05-28 06:45:23 51°12.75 2°49.66 5.1 261 14.4 102400 84
2003-05-28 06:45:29 51°12.74 2°49.63 5.1 261 14.4 102400 84
2003-05-28 06:45:33 51°12.73 2°49.61 5.1 261 14.4 102400 84
2003-05-28 06:45:39 51°12.72 2°49.57 5.1 261 14.4 102400 84
2003-05-28 06:45:45 51°12.71 2°49.54 5.1 261 14.4 102400 84
2003-05-28 06:45:49 51°12.7 2°49.51 5.1 261 14.4 102400 85
2003-05-28 06:45:53 51°12.69 2°49.49 5.1 261 14.4 102400 85
2003-05-28 06:45:59 51°12.68 2°49.46 5.1 261 14.4 102400 85
2003-05-28 06:46:05 51°12.67 2°49.42 5.1 261 14.4 102400 85
2003-05-28 06:46:09 51°12.66 2°49.4 5.1 261 14.4 102400 85
2003-05-28 06:46:13 51°12.65 2°49.38 5.1 261 14.4 102400 85
2003-05-28 06:46:19 51°12.64 2°49.34 5.1 261 14.4 102400 85
2003-05-28 06:46:25 51°12.63 2°49.31 5.1 261 14.4 102400 85
2003-05-28 06:46:29 51°12.62 2°49.28 5.1 261 14.5 102400 85
2003-05-28 06:46:33 51°12.61 2°49.26 5.1 261 14.5 102400 85
2003-05-28 06:46:39 51°12.6 2°49.23 5.1 261 14.5 102390 85
2003-05-28 06:46:45 51°12.59 2°49.19 5.1 261 14.5 102390 85
2003-05-28 06:46:49 51°12.58 2°49.17 5.1 261 14.5 102400 85
2003-05-28 06:46:53 51°12.57 2°49.15 5.1 261 14.5 102400 85
2003-05-28 06:46:59 51°12.56 2°49.11 5.1 261 14.5 102400 85
2003-05-28 06:47:03 51°12.55 2°49.09 5.1 261 14.5 102400 85
2003-05-28 06:47:09 51°12.54 2°49.05 5.1 261 14.5 102400 85
2003-05-28 06:47:13 51°12.53 2°49.03 5.1 261 14.5 102400 85
2003-05-28 06:47:19 51°12.52 2°49 5.1 261 14.5 102400 85
2003-05-28 06:47:25 51°12.5 2°48.96 5.1 261 14.5 102400 85
2003-05-28 06:47:29 51°12.5 2°48.94 5.1 261 14.5 102400 85
2003-05-28 06:47:33 51°12.49 2°48.91 5.1 261 14.5 102400 85
2003-05-28 06:47:39 51°12.48 2°48.88 5.1 261 14.5 102400 85
2003-05-28 06:47:41 51°12.47 2°48.87 5.1 261 14.5 102400 85
2003-05-28 06:47:49 51°12.46 2°48.82 5.1 261 14.5 102400 85
2003-05-28 06:47:53 51°12.45 2°48.8 5.1 261 14.5 102400 85
2003-05-28 06:47:59 51°12.44 2°48.76 5.1 261 14.6 102400 85
2003-05-28 06:48:05 51°12.42 2°48.73 5.1 261 14.6 102400 85
2003-05-28 06:48:15 51°12.4 2°48.67 5.1 261 14.6 102400 85
2003-05-28 06:48:19 51°12.4 2°48.65 5.1 261 14.6 102400 85
2003-05-28 06:48:25 51°12.38 2°48.61 5.1 261 14.6 102400 85
2003-05-28 06:48:29 51°12.37 2°48.59 5.1 261 14.6 102400 85
2003-05-28 06:48:33 51°12.37 2°48.57 5.1 261 14.6 102400 85
2003-05-28 06:48:41 51°12.35 2°48.52 5.1 261 14.6 102390 86
2003-05-28 06:48:45 51°12.34 2°48.5 5.1 261 14.6 102390 86
2003-05-28 06:48:49 51°12.33 2°48.47 5.1 261 14.6 102390 86
2003-05-28 06:48:55 51°12.32 2°48.44 5.1 261 14.6 102390 86
2003-05-28 06:48:59 51°12.31 2°48.42 5.1 261 14.6 102400 86
2003-05-28 06:49:05 51°12.3 2°48.38 5.1 261 14.6 102400 86
2003-05-28 06:49:09 51°12.29 2°48.36 5.1 261 14.6 102400 86
2003-05-28 06:49:15 51°12.28 2°48.32 5.1 261 14.6 102400 86
2003-05-28 06:49:19 51°12.27 2°48.3 5.1 261 14.5 102400 86
2003-05-28 06:49:25 51°12.26 2°48.27 5.1 261 14.5 102400 86
2003-05-28 06:49:29 51°12.25 2°48.24 5.1 261 14.5 102400 86
2003-05-28 06:49:35 51°12.24 2°48.21 5.1 261 14.5 102400 86
2003-05-28 06:49:39 51°12.23 2°48.19 5.1 261 14.5 102390 86
2003-05-28 06:49:45 51°12.22 2°48.15 5.1 261 14.5 102390 86
2003-05-28 06:49:49 51°12.21 2°48.13 5.1 261 14.5 102390 86
2003-05-28 06:49:55 51°12.2 2°48.09 5.1 261 14.5 102390 86
2003-05-28 06:49:59 51°12.19 2°48.07 5.1 261 14.5 102400 86
2003-05-28 06:50:05 51°12.18 2°48.03 5.1 261 14.5 102400 86
2003-05-28 06:50:09 51°12.17 2°48.01 5.1 261 14.5 102400 86
2003-05-28 06:50:15 51°12.16 2°47.98 5.1 261 14.5 102400 86
2003-05-28 06:50:21 51°12.15 2°47.94 5.1 261 14.5 102400 86
2003-05-28 06:50:25 51°12.14 2°47.92 5.1 261 14.5 102400 86
2003-05-28 06:50:29 51°12.13 2°47.9 5.1 261 14.5 102390 86
2003-05-28 06:50:35 51°12.12 2°47.86 5.1 261 14.5 102390 86
2003-05-28 06:50:39 51°12.11 2°47.84 5.1 261 14.5 102390 86
2003-05-28 06:50:45 51°12.1 2°47.81 5.1 261 14.5 102390 86
2003-05-28 06:50:49 51°12.09 2°47.78 5.1 261 14.5 102400 86
2003-05-28 06:50:55 51°12.08 2°47.75 5.1 261 14.5 102400 86
2003-05-28 06:50:59 51°12.07 2°47.72 5.1 261 14.5 102400 86
2003-05-28 06:51:05 51°12.06 2°47.69 5.1 261 14.5 102400 86
2003-05-28 06:51:09 51°12.05 2°47.67 5.1 261 14.5 102390 86
2003-05-28 06:51:13 51°12.04 2°47.64 5.1 261 14.5 102390 86
2003-05-28 06:51:39 51°12 2°47.49 5.1 261 14.5 102400 86
2003-05-28 06:51:41 51°11.99 2°47.48 5.1 261 14.5 102400 86
2003-05-28 06:51:49 51°11.98 2°47.43 5.1 261 14.5 102400 86
2003-05-28 06:51:53 51°11.97 2°47.4 5.1 261 14.5 102400 86
2003-05-28 06:51:57 51°11.96 2°47.38 5.1 261 14.5 102390 86
2003-05-28 06:52:17 51°11.93 2°47.26 5.1 261 14.5 102390 86
2003-05-28 06:52:25 51°11.91 2°47.21 5.1 261 14.5 102390 86
2003-05-28 06:52:29 51°11.91 2°47.19 5.1 261 14.5 102390 86
2003-05-28 06:52:33 51°11.9 2°47.17 5.1 261 14.5 102390 86
2003-05-28 06:52:39 51°11.89 2°47.13 5.1 261 14.5 102390 86
2003-05-28 06:52:45 51°11.88 2°47.09 5.1 261 14.5 102390 86
2003-05-28 06:52:49 51°11.87 2°47.07 5.1 261 14.5 102390 87
2003-05-28 06:52:53 51°11.86 2°47.05 5.1 261 14.5 102390 87
2003-05-28 06:52:59 51°11.85 2°47.01 5.1 261 14.4 102390 87
2003-05-28 06:53:05 51°11.84 2°46.97 5.1 261 14.4 102390 87
2003-05-28 06:53:09 51°11.84 2°46.95 5.1 261 14.4 102390 87
2003-05-28 06:53:13 51°11.83 2°46.93 5.1 261 14.4 102390 87
2003-05-28 06:53:17 51°11.82 2°46.9 5.1 261 14.4 102400 87
2003-05-28 06:53:23 51°11.81 2°46.87 5.1 261 14.4 102400 87
2003-05-28 06:53:29 51°11.8 2°46.83 5.1 261 14.4 102390 87
2003-05-28 06:53:33 51°11.79 2°46.81 5.1 261 14.4 102390 87
2003-05-28 06:53:39 51°11.78 2°46.77 5.1 261 14.5 102400 87
2003-05-28 06:53:45 51°11.77 2°46.74 5.1 261 14.5 102400 87
2003-05-28 06:53:49 51°11.77 2°46.71 5.1 261 14.4 102390 87
2003-05-28 06:53:53 51°11.76 2°46.69 5.1 261 14.4 102390 87
2003-05-28 06:53:59 51°11.75 2°46.65 5.1 261 14.4 102390 87
2003-05-28 06:54:05 51°11.74 2°46.61 5.1 261 14.4 102390 87
2003-05-28 06:54:09 51°11.73 2°46.59 5.1 261 14.4 102400 87
2003-05-28 06:54:13 51°11.73 2°46.56 5.1 261 14.4 102400 87
2003-05-28 06:54:19 51°11.72 2°46.53 5.1 261 14.4 102400 87
2003-05-28 06:54:25 51°11.71 2°46.49 5.1 261 14.4 102400 87
2003-05-28 06:54:29 51°11.7 2°46.46 5.1 261 14.4 102400 87
2003-05-28 06:54:33 51°11.7 2°46.44 5.1 261 14.4 102400 87
2003-05-28 06:54:39 51°11.69 2°46.4 5.1 261 14.4 102390 87
2003-05-28 06:54:41 51°11.68 2°46.39 5.1 261 14.4 102390 87
2003-05-28 06:54:49 51°11.67 2°46.34 5.1 261 14.4 102400 87
2003-05-28 06:54:53 51°11.67 2°46.32 5.1 261 14.4 102400 87
2003-05-28 06:54:59 51°11.66 2°46.28 5.1 261 14.4 102390 87
2003-05-28 06:55:03 51°11.65 2°46.26 5.1 261 14.4 102390 87
2003-05-28 06:55:09 51°11.64 2°46.22 5.1 261 14.4 102390 87
2003-05-28 06:55:13 51°11.64 2°46.19 5.1 261 14.4 102390 87
2003-05-28 06:55:19 51°11.63 2°46.16 5.1 261 14.4 102400 87
2003-05-28 06:55:25 51°11.62 2°46.12 5.1 261 14.4 102400 87
2003-05-28 06:55:29 51°11.61 2°46.1 5.1 261 14.4 102400 87
2003-05-28 06:55:33 51°11.61 2°46.07 5.1 261 14.4 102400 87
2003-05-28 06:55:39 51°11.6 2°46.03 5.1 261 14.4 102400 87
2003-05-28 06:55:41 51°11.59 2°46.02 5.1 261 14.4 102400 87
2003-05-28 06:55:49 51°11.58 2°45.97 5.1 261 14.4 102400 87
2003-05-28 06:55:53 51°11.57 2°45.95 5.1 261 14.4 102400 87
2003-05-28 06:55:59 51°11.57 2°45.91 5.1 261 14.4 102400 87
2003-05-28 06:56:05 51°11.56 2°45.87 5.1 261 14.4 102400 87
2003-05-28 06:56:15 51°11.54 2°45.81 5.1 261 14.4 102400 87
2003-05-28 06:56:19 51°11.53 2°45.79 5.1 261 14.4 102400 87
2003-05-28 06:56:25 51°11.52 2°45.75 5.1 261 14.4 102400 87
2003-05-28 06:56:29 51°11.52 2°45.73 5.1 261 14.4 102400 87
2003-05-28 06:56:33 51°11.51 2°45.7 5.1 261 14.4 102400 87
2003-05-28 06:56:39 51°11.5 2°45.66 5.1 261 14.4 102400 87
2003-05-28 06:56:45 51°11.49 2°45.63 5.1 261 14.4 102400 87
2003-05-28 06:56:49 51°11.49 2°45.6 5.1 261 14.4 102400 87
2003-05-28 06:56:55 51°11.48 2°45.57 5.1 261 14.4 102400 87
2003-05-28 06:56:59 51°11.47 2°45.54 5.1 261 14.4 102400 87
2003-05-28 06:57:05 51°11.46 2°45.5 5.1 261 14.4 102400 87
2003-05-28 06:57:09 51°11.46 2°45.48 5.1 261 14.4 102400 87
2003-05-28 06:57:15 51°11.45 2°45.44 5.1 261 14.4 102400 87
2003-05-28 06:57:19 51°11.44 2°45.42 5.1 261 14.4 102400 87
2003-05-28 06:57:25 51°11.43 2°45.38 5.1 261 14.4 102400 87
2003-05-28 06:57:29 51°11.43 2°45.35 5.1 261 14.4 102400 87
2003-05-28 06:57:33 51°11.42 2°45.33 5.1 261 14.4 102400 87
2003-05-28 06:57:39 51°11.41 2°45.29 5.1 261 14.4 102400 87
2003-05-28 06:57:45 51°11.4 2°45.25 5.1 261 14.4 102400 87
2003-05-28 06:57:49 51°11.4 2°45.23 5.1 261 14.4 102400 87
2003-05-28 06:57:55 51°11.39 2°45.19 5.1 261 14.4 102400 87
2003-05-28 06:57:59 51°11.39 2°45.16 5.1 261 14.4 102400 87
2003-05-28 06:58:05 51°11.38 2°45.12 5.1 261 14.4 102400 87
2003-05-28 06:58:09 51°11.37 2°45.1 5.1 261 14.4 102400 87
2003-05-28 06:58:15 51°11.37 2°45.06 5.1 261 14.4 102400 87
2003-05-28 06:58:19 51°11.36 2°45.04 5.1 261 14.4 102400 87
2003-05-28 06:58:25 51°11.35 2°45 5.1 261 14.4 102400 87
2003-05-28 06:58:29 51°11.35 2°44.97 5.1 261 14.4 102400 87
2003-05-28 06:58:33 51°11.34 2°44.95 5.1 261 14.4 102400 87
2003-05-28 06:58:39 51°11.34 2°44.91 5.1 261 14.4 102400 87
2003-05-28 06:58:45 51°11.33 2°44.87 5.1 261 14.4 102400 87
2003-05-28 06:58:49 51°11.32 2°44.85 5.1 261 14.4 102400 87
2003-05-28 06:58:55 51°11.32 2°44.81 5.1 261 14.4 102400 87
2003-05-28 06:58:59 51°11.31 2°44.79 5.1 261 14.4 102400 87
2003-05-28 06:59:05 51°11.3 2°44.75 5.1 261 14.4 102400 87
2003-05-28 06:59:15 51°11.29 2°44.68 5.1 261 14.4 102400 87
2003-05-28 06:59:19 51°11.29 2°44.66 5.1 261 14.4 102400 87
2003-05-28 06:59:25 51°11.28 2°44.62 5.1 261 14.4 102400 87
2003-05-28 06:59:29 51°11.27 2°44.59 5.1 261 14.4 102400 87
2003-05-28 06:59:33 51°11.27 2°44.57 5.1 261 14.4 102400 87
2003-05-28 06:59:39 51°11.26 2°44.53 5.1 261 14.4 102400 87
2003-05-28 06:59:45 51°11.25 2°44.49 5.1 261 14.4 102400 87
2003-05-28 06:59:49 51°11.25 2°44.47 5.1 261 14.4 102400 87
2003-05-28 06:59:55 51°11.24 2°44.43 5.1 261 14.4 102400 87
2003-05-28 06:59:59 51°11.24 2°44.4 5.1 261 14.4 102400 87
2003-05-28 07:00:05 51°11.23 2°44.37 5.1 261 14.4 102400 87
2003-05-28 07:00:15 51°11.22 2°44.3 5.1 261 14.4 102400 87
2003-05-28 07:00:21 51°11.21 2°44.26 5.1 261 14.4 102400 87
2003-05-28 07:00:25 51°11.21 2°44.24 5.1 261 14.4 102400 87
2003-05-28 07:00:29 51°11.2 2°44.21 5.1 261 14.4 102400 87
2003-05-28 07:00:35 51°11.2 2°44.18 5.1 261 14.4 102400 87
2003-05-28 07:00:41 51°11.19 2°44.14 5.1 261 14.4 102400 87
2003-05-28 07:00:45 51°11.18 2°44.11 5.1 261 14.4 102400 87
2003-05-28 07:00:55 51°11.17 2°44.05 5.1 261 14.4 102400 87
2003-05-28 07:01:01 51°11.17 2°44.01 5.1 261 14.4 102400 87
2003-05-28 07:01:05 51°11.16 2°43.98 5.1 261 14.4 102400 87
2003-05-28 07:01:09 51°11.16 2°43.96 5.1 261 14.4 102400 87
2003-05-28 07:01:15 51°11.15 2°43.92 5.1 261 14.4 102400 87
2003-05-28 07:01:21 51°11.14 2°43.88 5.1 261 14.4 102400 87
2003-05-28 07:01:25 51°11.14 2°43.86 5.1 261 14.4 102400 87
2003-05-28 07:01:35 51°11.13 2°43.8 5.1 261 14.4 102400 87
2003-05-28 07:01:39 51°11.12 2°43.77 5.1 261 14.4 102400 87
2003-05-28 07:01:45 51°11.12 2°43.73 5.1 261 14.4 102400 87
2003-05-28 07:01:49 51°11.11 2°43.71 5.1 261 14.4 102400 87
2003-05-28 07:01:55 51°11.11 2°43.67 5.1 261 14.4 102400 87
2003-05-28 07:02:01 51°11.1 2°43.63 5.1 261 14.4 102400 87
2003-05-28 07:02:05 51°11.09 2°43.61 5.1 261 14.4 102400 87
2003-05-28 07:02:09 51°11.09 2°43.58 5.1 261 14.4 102400 87
2003-05-28 07:02:15 51°11.08 2°43.54 5.1 261 14.4 102400 87
2003-05-28 07:02:21 51°11.08 2°43.5 5.1 261 14.4 102400 87
2003-05-28 07:02:25 51°11.07 2°43.48 5.1 261 14.4 102400 87
2003-05-28 07:02:35 51°11.06 2°43.42 5.1 261 14.4 102400 87
2003-05-28 07:02:41 51°11.05 2°43.38 5.1 261 14.4 102400 87
2003-05-28 07:02:45 51°11.05 2°43.35 5.1 261 14.4 102400 87
2003-05-28 07:02:49 51°11.04 2°43.33 5.1 261 14.4 102400 87
2003-05-28 07:02:53 51°11.04 2°43.3 5.1 261 14.4 102400 87
2003-05-28 07:03:11 51°11.02 2°43.19 5.1 261 14.4 102400 87
2003-05-28 07:03:17 51°11.01 2°43.15 5.1 261 14.4 102400 87
2003-05-28 07:03:21 51°11.01 2°43.12 5.1 261 14.4 102400 87
2003-05-28 07:03:25 51°11 2°43.1 5.1 261 14.4 102400 87
2003-05-28 07:03:31 51°11 2°43.06 5.1 261 14.4 102400 87
2003-05-28 07:03:37 51°10.99 2°43.02 5.1 261 14.4 102400 87
2003-05-28 07:03:41 51°10.98 2°43 5.1 261 14.4 102400 87
2003-05-28 07:03:45 51°10.98 2°42.97 5.1 261 14.4 102400 87
2003-05-28 07:03:49 51°10.97 2°42.95 5.1 261 14.4 102400 87
2003-05-28 07:03:57 51°10.97 2°42.9 5.1 261 14.4 102400 87
2003-05-28 07:04:01 51°10.96 2°42.87 5.1 261 14.4 102400 87
2003-05-28 07:04:05 51°10.96 2°42.85 5.1 261 14.4 102400 87
2003-05-28 07:04:09 51°10.95 2°42.82 5.1 261 14.4 102400 87
2003-05-28 07:04:17 51°10.94 2°42.77 5.1 261 14.4 102400 87
2003-05-28 07:04:21 51°10.94 2°42.74 5.1 261 14.4 102400 87
2003-05-28 07:04:25 51°10.93 2°42.72 5.1 261 14.4 102400 87
2003-05-28 07:04:29 51°10.93 2°42.69 5.1 261 14.4 102400 87
2003-05-28 07:04:37 51°10.92 2°42.64 5.1 261 14.4 102400 87
2003-05-28 07:04:41 51°10.92 2°42.62 5.1 261 14.4 102400 87
2003-05-28 07:04:45 51°10.91 2°42.59 5.1 261 14.4 102400 87
2003-05-28 07:04:55 51°10.9 2°42.53 5.1 261 14.4 102400 87
2003-05-28 07:05:01 51°10.89 2°42.49 5.1 261 14.4 102400 87
2003-05-28 07:05:05 51°10.89 2°42.47 5.1 261 14.4 102400 87
2003-05-28 07:05:09 51°10.88 2°42.44 5.1 261 14.4 102400 87
2003-05-28 07:05:15 51°10.88 2°42.4 5.1 261 14.4 102400 87
2003-05-28 07:05:21 51°10.87 2°42.37 5.1 261 14.4 102400 87
2003-05-28 07:05:25 51°10.86 2°42.34 5.1 261 14.4 102400 87
2003-05-28 07:05:35 51°10.85 2°42.28 5.1 261 14.4 102400 87
2003-05-28 07:05:41 51°10.85 2°42.24 5.1 261 14.4 102400 87
2003-05-28 07:05:45 51°10.84 2°42.21 5.1 261 14.4 102400 87
2003-05-28 07:05:49 51°10.84 2°42.19 5.1 261 14.4 102400 87
2003-05-28 07:05:55 51°10.83 2°42.15 5.1 261 14.4 102400 87
2003-05-28 07:06:01 51°10.83 2°42.11 5.1 261 14.4 102400 87
2003-05-28 07:06:05 51°10.82 2°42.09 5.1 261 14.4 102400 87
2003-05-28 07:06:15 51°10.81 2°42.02 5.1 261 14.4 102400 87
2003-05-28 07:06:21 51°10.81 2°41.99 5.1 261 14.4 102400 87
2003-05-28 07:06:25 51°10.8 2°41.96 5.1 261 14.4 102400 87
2003-05-28 07:06:35 51°10.79 2°41.9 5.1 261 14.4 102400 87
2003-05-28 07:06:41 51°10.79 2°41.86 5.1 261 14.4 102400 87
2003-05-28 07:06:45 51°10.78 2°41.84 5.1 261 14.4 102400 87
2003-05-28 07:06:49 51°10.78 2°41.81 5.1 261 14.4 102400 87
2003-05-28 07:06:53 51°10.78 2°41.79 5.1 261 14.4 102400 87
2003-05-28 07:07:11 51°10.76 2°41.67 5.1 261 14.4 102400 87
2003-05-28 07:07:17 51°10.75 2°41.63 5.1 261 14.4 102400 87
2003-05-28 07:07:21 51°10.75 2°41.61 5.1 261 14.4 102400 87
2003-05-28 07:07:25 51°10.74 2°41.58 5.1 261 14.4 102400 87
2003-05-28 07:07:31 51°10.74 2°41.55 5.1 261 14.4 102400 87
2003-05-28 07:07:37 51°10.73 2°41.51 5.1 261 14.4 102400 87
2003-05-28 07:07:41 51°10.73 2°41.48 5.1 261 14.4 102400 87
2003-05-28 07:07:45 51°10.72 2°41.46 5.1 261 14.4 102400 87
2003-05-28 07:07:55 51°10.71 2°41.39 5.1 261 14.4 102400 87
2003-05-28 07:08:01 51°10.71 2°41.36 5.1 261 14.4 102400 87
2003-05-28 07:08:05 51°10.7 2°41.33 5.1 261 14.4 102400 87
2003-05-28 07:08:09 51°10.7 2°41.31 5.1 261 14.4 102400 87
2003-05-28 07:08:15 51°10.69 2°41.27 5.1 261 14.4 102400 87
2003-05-28 07:08:21 51°10.69 2°41.23 5.1 261 14.4 102400 87
2003-05-28 07:08:25 51°10.68 2°41.2 5.1 261 14.4 102400 87
2003-05-28 07:08:35 51°10.67 2°41.14 5.1 261 14.4 102400 87
2003-05-28 07:08:37 51°10.67 2°41.13 5.1 261 14.4 102400 87
2003-05-28 07:08:45 51°10.66 2°41.08 5.1 261 14.4 102400 87
2003-05-28 07:08:49 51°10.66 2°41.05 5.1 261 14.4 102400 87
2003-05-28 07:08:53 51°10.66 2°41.03 5.1 261 14.4 102400 87
2003-05-28 07:09:01 51°10.65 2°40.98 5.1 261 14.4 102400 87
2003-05-28 07:09:05 51°10.64 2°40.95 5.1 261 14.4 102400 87
2003-05-28 07:09:09 51°10.64 2°40.93 5.1 261 14.4 102400 87
2003-05-28 07:09:15 51°10.63 2°40.89 5.1 261 14.4 102400 87
2003-05-28 07:09:19 51°10.63 2°40.87 5.1 261 14.4 102400 87
2003-05-28 07:09:25 51°10.62 2°40.83 5.1 261 14.4 102400 87
2003-05-28 07:09:35 51°10.61 2°40.77 5.1 261 14.4 102400 87
2003-05-28 07:09:39 51°10.61 2°40.74 5.1 261 14.4 102400 87
2003-05-28 07:09:45 51°10.6 2°40.7 5.1 261 14.4 102400 87
2003-05-28 07:09:49 51°10.6 2°40.68 5.1 261 14.4 102400 87
2003-05-28 07:09:55 51°10.6 2°40.64 5.1 261 14.4 102400 87
2003-05-28 07:10:01 51°10.59 2°40.6 5.1 261 14.4 102400 87
2003-05-28 07:10:05 51°10.59 2°40.58 5.1 261 14.4 102400 87
2003-05-28 07:10:09 51°10.58 2°40.55 5.1 261 14.4 102400 87
2003-05-28 07:10:13 51°10.58 2°40.53 5.1 261 14.4 102400 87
2003-05-28 07:10:21 51°10.57 2°40.48 5.1 261 14.4 102400 87
2003-05-28 07:10:25 51°10.57 2°40.45 5.1 261 14.4 102400 87
2003-05-28 07:10:29 51°10.56 2°40.43 5.1 261 14.4 102400 87
2003-05-28 07:10:33 51°10.56 2°40.4 5.1 261 14.4 102400 87
2003-05-28 07:10:47 51°10.54 2°40.31 5.1 261 14.4 102400 87
2003-05-28 07:10:53 51°10.54 2°40.27 5.1 261 14.4 102400 87
2003-05-28 07:10:57 51°10.53 2°40.25 5.1 261 14.4 102400 87
2003-05-28 07:11:05 51°10.53 2°40.2 5.1 261 14.4 102400 87
2003-05-28 07:11:15 51°10.52 2°40.14 5.1 261 14.4 102400 87
2003-05-28 07:11:19 51°10.51 2°40.11 5.1 261 14.4 102400 87
2003-05-28 07:11:25 51°10.51 2°40.07 5.1 261 14.4 102400 87
2003-05-28 07:11:29 51°10.5 2°40.05 5.1 261 14.4 102400 87
2003-05-28 07:11:35 51°10.5 2°40.01 5.1 261 14.4 102400 87
2003-05-28 07:11:39 51°10.49 2°39.98 5.1 261 14.4 102400 87
2003-05-28 07:11:45 51°10.49 2°39.95 5.1 261 14.4 102400 87
2003-05-28 07:11:49 51°10.48 2°39.92 5.1 261 14.4 102400 87
2003-05-28 07:11:53 51°10.48 2°39.9 5.1 261 14.4 102400 87
2003-05-28 07:12:01 51°10.47 2°39.85 5.1 261 14.4 102400 87
2003-05-28 07:12:05 51°10.47 2°39.82 5.1 261 14.4 102400 87
2003-05-28 07:12:09 51°10.46 2°39.79 5.1 261 14.4 102400 87
2003-05-28 07:12:15 51°10.46 2°39.76 5.1 261 14.4 102400 87
2003-05-28 07:12:31 51°10.44 2°39.66 5.1 261 14.4 102400 87
2003-05-28 07:12:37 51°10.43 2°39.62 5.1 261 14.4 102400 87
2003-05-28 07:12:41 51°10.43 2°39.59 5.1 261 14.4 102400 87
2003-05-28 07:12:45 51°10.43 2°39.57 5.1 261 14.4 102400 87
2003-05-28 07:12:49 51°10.42 2°39.54 5.1 261 14.4 102400 87
2003-05-28 07:12:57 51°10.41 2°39.49 5.1 261 14.4 102400 87
2003-05-28 07:13:01 51°10.41 2°39.47 5.1 261 14.4 102400 87
2003-05-28 07:13:05 51°10.41 2°39.44 5.1 261 14.4 102400 87
2003-05-28 07:13:09 51°10.4 2°39.42 5.1 261 14.4 102400 87
2003-05-28 07:13:17 51°10.39 2°39.37 5.1 261 14.4 102400 87
2003-05-28 07:13:21 51°10.39 2°39.34 5.1 261 14.4 102400 87
2003-05-28 07:13:25 51°10.39 2°39.32 5.1 261 14.4 102400 87
2003-05-28 07:13:35 51°10.38 2°39.25 5.1 261 14.4 102400 87
2003-05-28 07:13:39 51°10.37 2°39.23 5.1 261 14.4 102400 87
2003-05-28 07:13:45 51°10.37 2°39.19 5.1 261 14.4 102400 87
2003-05-28 07:13:49 51°10.36 2°39.16 5.1 261 14.4 102400 87
2003-05-28 07:13:55 51°10.35 2°39.13 5.1 261 14.4 102400 87
2003-05-28 07:14:01 51°10.35 2°39.09 5.1 261 14.4 102400 87
2003-05-28 07:14:05 51°10.34 2°39.06 5.1 261 14.4 102400 87
2003-05-28 07:14:15 51°10.34 2°39 5.1 261 14.4 102400 87
2003-05-28 07:14:21 51°10.33 2°38.96 5.1 261 14.4 102400 87
2003-05-28 07:14:25 51°10.32 2°38.94 5.1 261 14.4 102400 87
2003-05-28 07:14:29 51°10.32 2°38.91 5.1 261 14.4 102400 87
2003-05-28 07:14:35 51°10.31 2°38.88 5.1 261 14.4 102400 87
2003-05-28 07:14:41 51°10.31 2°38.84 5.1 261 14.4 102400 87
2003-05-28 07:14:45 51°10.3 2°38.81 5.1 261 14.4 102400 87
2003-05-28 07:14:55 51°10.29 2°38.75 5.1 261 14.4 102400 87
2003-05-28 07:15:01 51°10.29 2°38.71 5.1 261 14.4 102400 87
2003-05-28 07:15:05 51°10.28 2°38.69 5.1 261 14.4 102400 87
2003-05-28 07:15:15 51°10.27 2°38.62 5.1 261 14.4 102400 87
2003-05-28 07:15:21 51°10.27 2°38.59 5.1 261 14.4 102400 87
2003-05-28 07:15:25 51°10.26 2°38.56 5.1 261 14.4 102400 87
2003-05-28 07:15:29 51°10.26 2°38.54 5.1 261 14.4 102400 87
2003-05-28 07:15:35 51°10.25 2°38.5 5.1 261 14.4 102400 87
2003-05-28 07:15:41 51°10.25 2°38.46 5.1 261 14.4 102400 87
2003-05-28 07:15:45 51°10.24 2°38.43 5.1 261 14.4 102400 87
2003-05-28 07:15:55 51°10.23 2°38.37 5.1 261 14.4 102400 87
2003-05-28 07:16:01 51°10.23 2°38.33 5.1 261 14.4 102400 87
2003-05-28 07:16:05 51°10.22 2°38.31 5.1 261 14.4 102400 87
2003-05-28 07:16:09 51°10.22 2°38.28 5.1 261 14.4 102400 87
2003-05-28 07:16:15 51°10.21 2°38.25 5.1 261 14.4 102400 87
2003-05-28 07:16:21 51°10.21 2°38.21 5.1 261 14.4 102400 87
2003-05-28 07:16:25 51°10.2 2°38.18 5.1 261 14.4 102400 87
2003-05-28 07:16:35 51°10.19 2°38.12 5.1 261 14.4 102400 87
2003-05-28 07:16:39 51°10.19 2°38.09 5.1 261 14.4 102400 87
2003-05-28 07:16:45 51°10.18 2°38.06 5.1 261 14.4 102400 87
2003-05-28 07:16:49 51°10.18 2°38.03 5.1 261 14.4 102400 87
2003-05-28 07:16:55 51°10.17 2°37.99 5.1 261 14.4 102400 87
2003-05-28 07:17:01 51°10.17 2°37.95 5.1 261 14.4 102400 87
2003-05-28 07:17:05 51°10.16 2°37.93 5.1 261 14.4 102400 87
2003-05-28 07:17:15 51°10.15 2°37.87 5.1 261 14.4 102400 87
2003-05-28 07:17:21 51°10.15 2°37.83 5.1 261 14.4 102400 87
2003-05-28 07:17:25 51°10.14 2°37.8 5.1 261 14.4 102400 87
2003-05-28 07:17:29 51°10.14 2°37.78 5.1 261 14.4 102400 87
2003-05-28 07:17:35 51°10.13 2°37.74 5.1 261 14.4 102400 87
2003-05-28 07:17:41 51°10.13 2°37.7 5.1 261 14.4 102400 87
2003-05-28 07:17:45 51°10.12 2°37.68 5.1 261 14.4 102400 87
2003-05-28 07:17:49 51°10.12 2°37.65 5.1 261 14.4 102400 87
2003-05-28 07:17:55 51°10.11 2°37.61 5.1 261 14.4 102400 87
2003-05-28 07:18:01 51°10.11 2°37.58 5.1 261 14.4 102400 87
2003-05-28 07:18:05 51°10.1 2°37.55 5.1 261 14.4 102400 87
2003-05-28 07:18:15 51°10.09 2°37.49 5.1 261 14.4 102400 87
2003-05-28 07:18:21 51°10.09 2°37.45 5.1 261 14.4 102400 87
2003-05-28 07:18:25 51°10.08 2°37.42 5.1 261 14.4 102400 87
2003-05-28 07:18:29 51°10.08 2°37.4 5.1 261 14.4 102400 87
2003-05-28 07:18:35 51°10.07 2°37.36 5.1 261 14.4 102400 87
2003-05-28 07:18:41 51°10.07 2°37.32 5.1 261 14.4 102400 87
2003-05-28 07:18:45 51°10.06 2°37.3 5.1 261 14.4 102400 87
2003-05-28 07:18:55 51°10.05 2°37.23 5.1 261 14.4 102400 87
2003-05-28 07:19:01 51°10.05 2°37.2 5.1 261 14.4 102400 87
2003-05-28 07:19:05 51°10.04 2°37.17 5.1 261 14.4 102400 87
2003-05-28 07:19:09 51°10.04 2°37.15 5.1 261 14.4 102400 87
2003-05-28 07:19:15 51°10.03 2°37.11 5.1 261 14.4 102400 87
2003-05-28 07:19:21 51°10.03 2°37.07 5.1 261 14.4 102400 87
2003-05-28 07:19:25 51°10.02 2°37.04 5.1 261 14.4 102400 87
2003-05-28 07:19:35 51°10.01 2°36.98 5.1 261 14.4 102400 87
2003-05-28 07:19:39 51°10.01 2°36.96 5.1 261 14.4 102400 87
2003-05-28 07:19:45 51°10 2°36.92 5.1 261 14.4 102400 87
2003-05-28 07:19:55 51°9.99 2°36.86 5.1 261 14.4 102400 87
2003-05-28 07:20:01 51°9.99 2°36.82 5.1 261 14.4 102400 87
2003-05-28 07:20:05 51°9.98 2°36.79 5.1 261 14.4 102400 87
2003-05-28 07:20:09 51°9.98 2°36.77 5.1 261 14.4 102400 87
2003-05-28 07:20:15 51°9.97 2°36.73 5.1 261 14.4 102400 87
2003-05-28 07:20:21 51°9.97 2°36.69 5.1 261 14.4 102400 87
2003-05-28 07:20:25 51°9.96 2°36.67 5.1 261 14.4 102400 87
2003-05-28 07:20:35 51°9.95 2°36.6 5.1 261 14.4 102400 87
2003-05-28 07:20:41 51°9.95 2°36.56 5.1 261 14.4 102400 87
2003-05-28 07:20:45 51°9.94 2°36.54 5.1 261 14.4 102400 87
2003-05-28 07:20:49 51°9.94 2°36.51 5.1 261 14.4 102400 87
2003-05-28 07:20:53 51°9.93 2°36.49 5.1 261 14.4 102400 87
2003-05-28 07:21:11 51°9.92 2°36.38 5.1 261 14.4 102400 87
2003-05-28 07:21:17 51°9.92 2°36.34 5.1 261 14.4 102400 87
2003-05-28 07:21:21 51°9.92 2°36.31 5.1 261 14.4 102400 87
2003-05-28 07:21:25 51°9.92 2°36.29 5.1 261 14.4 102400 87
2003-05-28 07:21:31 51°9.92 2°36.25 5.1 261 14.4 102400 87
2003-05-28 07:21:37 51°9.92 2°36.21 5.1 261 14.4 102400 87
2003-05-28 07:21:41 51°9.93 2°36.19 5.1 261 14.4 102400 87
2003-05-28 07:21:45 51°9.93 2°36.16 5.1 261 14.4 102400 87
2003-05-28 07:21:49 51°9.93 2°36.14 5.1 261 14.4 102400 87
2003-05-28 07:21:57 51°9.94 2°36.09 5.1 261 14.4 102400 87
2003-05-28 07:22:01 51°9.95 2°36.07 5.1 261 14.4 102400 87
2003-05-28 07:22:05 51°9.96 2°36.04 5.1 261 14.4 102400 87
2003-05-28 07:22:15 51°9.98 2°35.99 5.1 261 14.4 102400 87
2003-05-28 07:22:21 51°9.99 2°35.96 5.1 261 14.4 102400 87
2003-05-28 07:22:26 51°10 2°35.94 5.1 261 14.4 102400 87
2003-05-28 07:22:29 51°10.01 2°35.92 5.1 261 14.4 102400 87
2003-05-28 07:22:35 51°10.03 2°35.9 5.1 261 14.4 102400 87
2003-05-28 07:22:41 51°10.04 2°35.87 5.1 261 14.4 102400 87
2003-05-28 07:22:45 51°10.06 2°35.86 5.1 261 14.4 102400 87
2003-05-28 07:22:55 51°10.09 2°35.82 5.1 261 14.4 102400 87
2003-05-28 07:23:01 51°10.11 2°35.81 5.1 261 14.4 102400 87
2003-05-28 07:23:05 51°10.12 2°35.79 5.1 261 14.4 102400 87
2003-05-28 07:23:09 51°10.13 2°35.78 5.1 261 14.4 102400 87
2003-05-28 07:23:13 51°10.15 2°35.77 5.1 261 14.4 102400 87
2003-05-28 07:23:21 51°10.17 2°35.76 5.1 261 14.4 102400 87
2003-05-28 07:23:25 51°10.19 2°35.75 5.1 261 14.4 102400 87
2003-05-28 07:23:29 51°10.2 2°35.75 5.1 261 14.4 102400 87
2003-05-28 07:23:35 51°10.22 2°35.74 5.1 261 14.4 102400 87
2003-05-28 07:23:41 51°10.25 2°35.74 5.1 261 14.4 102400 87
2003-05-28 07:23:45 51°10.26 2°35.74 5.1 261 14.4 102400 87
2003-05-28 07:23:49 51°10.27 2°35.73 5.1 261 14.4 102400 87
2003-05-28 07:23:55 51°10.3 2°35.73 5.1 261 14.4 102400 87
2003-05-28 07:23:59 51°10.31 2°35.73 5.1 261 14.4 102400 87
2003-05-28 07:24:05 51°10.33 2°35.74 5.1 261 14.4 102400 87
2003-05-28 07:24:09 51°10.35 2°35.74 5.1 261 14.4 102400 87
2003-05-28 07:24:15 51°10.37 2°35.75 5.1 261 14.4 102400 87
2003-05-28 07:24:21 51°10.39 2°35.75 5.1 261 14.4 102400 87
2003-05-28 07:24:25 51°10.4 2°35.76 5.1 261 14.4 102400 87
2003-05-28 07:24:29 51°10.42 2°35.76 5.1 261 14.4 102400 87
2003-05-28 07:24:33 51°10.43 2°35.77 5.1 261 14.4 102400 87
2003-05-28 07:24:41 51°10.46 2°35.78 5.1 261 14.4 102400 87
2003-05-28 07:24:45 51°10.48 2°35.78 5.1 261 14.4 102400 87
2003-05-28 07:24:49 51°10.49 2°35.79 5.1 261 14.4 102400 87
2003-05-28 07:24:53 51°10.5 2°35.8 5.1 261 14.4 102400 87
2003-05-28 07:25:05 51°10.54 2°35.82 5.1 261 14.4 102400 87
2003-05-28 07:25:13 51°10.57 2°35.84 5.1 261 14.4 102400 87
2003-05-28 07:25:17 51°10.58 2°35.84 5.1 261 14.4 102400 87
2003-05-28 07:25:21 51°10.6 2°35.85 5.1 261 14.4 102400 87
2003-05-28 07:25:25 51°10.61 2°35.86 5.1 261 14.4 102400 87
2003-05-28 07:25:33 51°10.64 2°35.87 5.1 261 14.4 102400 87
2003-05-28 07:25:37 51°10.65 2°35.88 5.1 261 14.4 102400 87
2003-05-28 07:25:41 51°10.67 2°35.89 5.1 261 14.4 102400 87
2003-05-28 07:25:47 51°10.69 2°35.9 5.1 261 14.4 102400 87
2003-05-28 07:25:53 51°10.71 2°35.91 5.1 261 14.4 102400 87
2003-05-28 07:25:57 51°10.72 2°35.92 5.1 261 14.4 102400 87
2003-05-28 07:26:01 51°10.73 2°35.93 5.1 261 14.4 102400 87
2003-05-28 07:26:07 51°10.75 2°35.95 5.1 261 14.4 102400 87
2003-05-28 07:26:13 51°10.77 2°35.97 5.1 261 14.4 102400 87
2003-05-28 07:26:17 51°10.78 2°35.98 5.1 261 14.4 102400 87
2003-05-28 07:26:31 51°10.83 2°36.03 5.1 261 14.4 102400 87
2003-05-28 07:26:37 51°10.84 2°36.05 5.1 261 14.4 102400 87
2003-05-28 07:26:41 51°10.86 2°36.06 5.1 261 14.4 102400 87
2003-05-28 07:26:45 51°10.87 2°36.07 5.1 261 14.4 102400 87
2003-05-28 07:26:55 51°10.9 2°36.11 5.1 261 14.4 102400 87
2003-05-28 07:27:01 51°10.92 2°36.13 5.1 261 14.4 102400 87
2003-05-28 07:27:05 51°10.93 2°36.14 5.1 261 14.4 102400 87
2003-05-28 07:27:09 51°10.94 2°36.15 5.1 261 14.4 102400 87
2003-05-28 07:27:15 51°10.96 2°36.17 5.1 261 14.4 102400 87
2003-05-28 07:27:21 51°10.98 2°36.19 5.1 261 14.4 102400 87
2003-05-28 07:27:25 51°10.99 2°36.2 5.1 261 14.4 102400 87
2003-05-28 07:27:35 51°11.02 2°36.23 5.1 261 14.4 102400 87
2003-05-28 07:27:41 51°11.04 2°36.25 5.1 261 14.4 102400 87
2003-05-28 07:27:45 51°11.05 2°36.27 5.1 261 14.4 102400 87
2003-05-28 07:27:49 51°11.06 2°36.28 5.1 261 14.4 102400 87
2003-05-28 07:27:53 51°11.07 2°36.29 5.1 261 14.4 102400 87
2003-05-28 07:28:01 51°11.1 2°36.32 5.1 261 14.4 102400 87
2003-05-28 07:28:05 51°11.11 2°36.33 5.1 261 14.4 102400 87
2003-05-28 07:28:09 51°11.12 2°36.34 5.1 261 14.4 102400 87
2003-05-28 07:28:15 51°11.14 2°36.36 5.1 261 14.4 102400 87
2003-05-28 07:28:21 51°11.16 2°36.38 5.1 261 14.4 102400 87
2003-05-28 07:28:25 51°11.17 2°36.4 5.1 261 14.4 102400 87
2003-05-28 07:28:29 51°11.18 2°36.41 5.1 261 14.4 102400 87
2003-05-28 07:28:35 51°11.2 2°36.43 5.1 261 14.4 102400 87
2003-05-28 07:28:39 51°11.21 2°36.44 5.1 261 14.4 102400 87
2003-05-28 07:28:45 51°11.23 2°36.46 5.1 261 14.4 102400 87
2003-05-28 07:28:49 51°11.24 2°36.47 5.1 261 14.4 102400 87
2003-05-28 07:28:55 51°11.26 2°36.49 5.1 261 14.4 102400 87
2003-05-28 07:29:01 51°11.28 2°36.51 5.1 261 14.4 102400 87
2003-05-28 07:29:05 51°11.29 2°36.52 5.1 261 14.4 102400 87
2003-05-28 07:29:09 51°11.31 2°36.53 5.1 261 14.4 102400 87
2003-05-28 07:29:13 51°11.32 2°36.55 5.1 261 14.4 102400 87
2003-05-28 07:29:21 51°11.34 2°36.57 5.1 261 14.4 102400 87
2003-05-28 07:29:25 51°11.35 2°36.59 5.1 261 14.4 102400 87
2003-05-28 07:29:29 51°11.37 2°36.6 5.1 261 14.4 102400 87
2003-05-28 07:29:33 51°11.38 2°36.61 5.1 261 14.4 102400 87
2003-05-28 07:29:51 51°11.43 2°36.67 5.1 261 14.4 102400 87
2003-05-28 07:29:57 51°11.45 2°36.69 5.1 261 14.4 102400 87
2003-05-28 07:30:01 51°11.46 2°36.7 5.1 261 14.4 102400 87
2003-05-28 07:30:05 51°11.48 2°36.71 5.1 261 14.4 102400 87
2003-05-28 07:30:11 51°11.49 2°36.73 5.1 261 14.4 102400 87
2003-05-28 07:30:17 51°11.51 2°36.75 5.1 261 14.4 102400 87
2003-05-28 07:30:31 51°11.56 2°36.8 5.1 261 14.4 102400 87
2003-05-28 07:30:37 51°11.57 2°36.81 5.1 261 14.4 102400 87
2003-05-28 07:30:41 51°11.59 2°36.83 5.1 261 14.4 102400 87
2003-05-28 07:30:45 51°11.6 2°36.84 5.1 261 14.4 102400 87
2003-05-28 07:30:49 51°11.61 2°36.85 5.1 261 14.4 102400 87
2003-05-28 07:30:57 51°11.64 2°36.88 5.1 261 14.4 102400 87
2003-05-28 07:31:01 51°11.65 2°36.89 5.1 261 14.4 102400 87
2003-05-28 07:31:05 51°11.66 2°36.9 5.1 261 14.4 102400 87
2003-05-28 07:31:09 51°11.67 2°36.92 5.1 261 14.4 102400 87
2003-05-28 07:31:17 51°11.7 2°36.94 5.1 261 14.4 102400 87
2003-05-28 07:31:21 51°11.71 2°36.95 5.1 261 14.4 102400 87
2003-05-28 07:31:25 51°11.72 2°36.97 5.1 261 14.4 102400 87
2003-05-28 07:31:35 51°11.75 2°37 5.1 261 14.4 102400 87
2003-05-28 07:31:41 51°11.77 2°37.02 5.1 261 14.4 102400 87
2003-05-28 07:31:45 51°11.78 2°37.03 5.1 261 14.4 102400 87
2003-05-28 07:31:49 51°11.79 2°37.04 5.1 261 14.4 102400 87
2003-05-28 07:31:55 51°11.81 2°37.06 5.1 261 14.4 102400 87
2003-05-28 07:32:01 51°11.83 2°37.08 5.1 261 14.4 102400 87
2003-05-28 07:32:05 51°11.84 2°37.09 5.1 261 14.4 102400 87
2003-05-28 07:32:15 51°11.87 2°37.12 5.1 261 14.4 102400 87
2003-05-28 07:32:21 51°11.89 2°37.14 5.1 261 14.4 102400 87
2003-05-28 07:32:25 51°11.9 2°37.16 5.1 261 14.4 102400 87
2003-05-28 07:32:29 51°11.92 2°37.17 5.1 261 14.4 102400 87
2003-05-28 07:32:35 51°11.94 2°37.19 5.1 261 14.4 102400 87
2003-05-28 07:32:41 51°11.95 2°37.21 5.1 261 14.4 102400 87
2003-05-28 07:32:45 51°11.97 2°37.22 5.1 261 14.4 102400 87
2003-05-28 07:32:49 51°11.98 2°37.23 5.1 261 14.4 102400 87
2003-05-28 07:32:53 51°11.99 2°37.24 5.1 261 14.4 102400 87
2003-05-28 07:33:01 51°12.02 2°37.27 5.1 261 14.4 102400 87
2003-05-28 07:33:05 51°12.03 2°37.28 5.1 261 14.4 102400 87
2003-05-28 07:33:09 51°12.04 2°37.29 5.1 261 14.4 102400 87
2003-05-28 07:33:15 51°12.06 2°37.31 5.1 261 14.4 102400 87
2003-05-28 07:33:19 51°12.07 2°37.33 5.1 261 14.4 102400 87
2003-05-28 07:33:25 51°12.09 2°37.34 5.1 261 14.4 102400 87
2003-05-28 07:33:29 51°12.1 2°37.36 5.1 261 14.4 102400 87
2003-05-28 07:33:35 51°12.12 2°37.38 5.1 261 14.4 102400 87
2003-05-28 07:33:39 51°12.13 2°37.39 5.1 261 14.4 102400 87
2003-05-28 07:33:45 51°12.15 2°37.41 5.1 261 14.4 102400 87
2003-05-28 07:33:55 51°12.18 2°37.44 5.1 261 14.4 102400 87
2003-05-28 07:34:01 51°12.2 2°37.46 5.1 261 14.4 102400 87
2003-05-28 07:34:05 51°12.21 2°37.47 5.1 261 14.4 102400 87
2003-05-28 07:34:09 51°12.22 2°37.49 5.1 261 14.4 102400 87
2003-05-28 07:34:13 51°12.24 2°37.5 5.1 261 14.4 102400 87
2003-05-28 07:34:37 51°12.31 2°37.57 5.1 261 14.4 102400 87
2003-05-28 07:34:45 51°12.33 2°37.6 5.1 261 14.4 102400 87
2003-05-28 07:34:49 51°12.35 2°37.61 5.1 261 14.4 102400 87
2003-05-28 07:34:53 51°12.36 2°37.62 5.1 261 14.4 102400 87
2003-05-28 07:34:57 51°12.37 2°37.63 5.1 261 14.4 102400 87
2003-05-28 07:35:07 51°12.4 2°37.67 5.1 261 14.4 102400 87
2003-05-28 07:35:13 51°12.42 2°37.68 5.1 261 14.4 102400 87
2003-05-28 07:35:17 51°12.43 2°37.7 5.1 261 14.4 102400 87
2003-05-28 07:35:21 51°12.44 2°37.71 5.1 261 14.4 102400 87
2003-05-28 07:35:27 51°12.46 2°37.73 5.1 261 14.4 102400 87
2003-05-28 07:35:33 51°12.48 2°37.75 5.1 261 14.4 102400 87
2003-05-28 07:35:37 51°12.49 2°37.76 5.1 261 14.4 102400 87
2003-05-28 07:35:41 51°12.51 2°37.77 5.1 261 14.4 102400 87
2003-05-28 07:35:45 51°12.52 2°37.79 5.1 261 14.4 102400 87
2003-05-28 07:35:53 51°12.54 2°37.81 5.1 261 14.4 102400 87
2003-05-28 07:35:57 51°12.56 2°37.82 5.1 261 14.4 102400 87
2003-05-28 07:36:01 51°12.57 2°37.84 5.1 261 14.4 102400 87
2003-05-28 07:36:05 51°12.58 2°37.85 5.1 261 14.4 102400 87
2003-05-28 07:36:13 51°12.6 2°37.87 5.1 261 14.4 102400 87
2003-05-28 07:36:17 51°12.62 2°37.89 5.1 261 14.4 102400 87
2003-05-28 07:36:21 51°12.63 2°37.9 5.1 261 14.4 102400 87
2003-05-28 07:36:25 51°12.64 2°37.91 5.1 261 14.4 102400 87
2003-05-28 07:36:33 51°12.67 2°37.94 5.1 261 14.4 102400 87
2003-05-28 07:36:37 51°12.68 2°37.95 5.1 261 14.4 102400 87
2003-05-28 07:36:41 51°12.69 2°37.96 5.1 261 14.4 102400 87
2003-05-28 07:36:45 51°12.7 2°37.97 5.1 261 14.4 102400 87
2003-05-28 07:36:55 51°12.73 2°38.01 5.1 261 14.4 102400 87
2003-05-28 07:37:01 51°12.75 2°38.03 5.1 261 14.4 102400 87
2003-05-28 07:37:05 51°12.76 2°38.04 5.1 261 14.4 102400 87
2003-05-28 07:37:09 51°12.78 2°38.05 5.1 261 14.4 102400 87
2003-05-28 07:37:15 51°12.79 2°38.07 5.1 261 14.4 102400 87
2003-05-28 07:37:21 51°12.81 2°38.09 5.1 261 14.4 102400 87
2003-05-28 07:37:25 51°12.82 2°38.1 5.1 261 14.4 102400 87
2003-05-28 07:37:35 51°12.86 2°38.13 5.1 261 14.4 102400 87
2003-05-28 07:37:41 51°12.87 2°38.15 5.1 261 14.4 102400 87
2003-05-28 07:37:45 51°12.89 2°38.16 5.1 261 14.4 102400 87
2003-05-28 07:37:55 51°12.92 2°38.2 5.1 261 14.4 102400 87
2003-05-28 07:38:01 51°12.94 2°38.21 5.1 261 14.4 102400 87
2003-05-28 07:38:05 51°12.95 2°38.23 5.1 261 14.4 102400 87
2003-05-28 07:38:09 51°12.96 2°38.24 5.1 261 14.4 102400 87
2003-05-28 07:38:15 51°12.98 2°38.26 5.1 261 14.4 102400 87
2003-05-28 07:38:21 51°13 2°38.28 5.1 261 14.4 102400 87
2003-05-28 07:38:25 51°13.01 2°38.29 5.1 261 14.4 102400 87
2003-05-28 07:38:35 51°13.04 2°38.31 5.1 261 14.4 102400 87
2003-05-28 07:38:41 51°13.06 2°38.33 5.1 261 14.4 102400 87
2003-05-28 07:38:45 51°13.08 2°38.34 5.1 261 14.4 102400 87
2003-05-28 07:38:49 51°13.09 2°38.35 5.1 261 14.4 102400 87
2003-05-28 07:38:55 51°13.11 2°38.37 5.1 261 14.4 102400 87
2003-05-28 07:39:01 51°13.13 2°38.38 5.1 261 14.4 102400 87
2003-05-28 07:39:05 51°13.14 2°38.39 5.1 261 14.4 102400 87
2003-05-28 07:39:15 51°13.17 2°38.42 5.1 261 14.4 102400 87
2003-05-28 07:39:21 51°13.19 2°38.44 5.1 261 14.4 102400 87
2003-05-28 07:39:25 51°13.21 2°38.44 5.1 261 14.4 102400 87
2003-05-28 07:39:29 51°13.22 2°38.45 5.1 261 14.4 102400 87
2003-05-28 07:39:35 51°13.24 2°38.47 5.1 261 14.4 102400 87
2003-05-28 07:39:41 51°13.26 2°38.48 5.1 261 14.4 102400 87
2003-05-28 07:39:45 51°13.27 2°38.49 5.1 261 14.4 102400 87
2003-05-28 07:39:49 51°13.29 2°38.5 5.1 261 14.4 102400 87
2003-05-28 07:39:55 51°13.31 2°38.51 5.1 261 14.4 102400 87
2003-05-28 07:40:01 51°13.33 2°38.53 5.1 261 14.4 102400 87
2003-05-28 07:40:05 51°13.34 2°38.54 5.1 261 14.4 102400 87
2003-05-28 07:40:15 51°13.38 2°38.56 5.1 261 14.4 102400 87
2003-05-28 07:40:21 51°13.4 2°38.57 5.1 261 14.4 102400 87
2003-05-28 07:40:25 51°13.41 2°38.58 5.1 261 14.4 102400 87
2003-05-28 07:40:29 51°13.42 2°38.59 5.1 261 14.4 102400 87
2003-05-28 07:40:35 51°13.44 2°38.6 5.1 261 14.4 102400 87
2003-05-28 07:40:41 51°13.46 2°38.62 5.1 261 14.4 102400 87
2003-05-28 07:40:45 51°13.48 2°38.63 5.1 261 14.4 102400 87
2003-05-28 07:40:55 51°13.51 2°38.65 5.1 261 14.4 102400 87
2003-05-28 07:41:01 51°13.53 2°38.66 5.1 261 14.4 102400 87
2003-05-28 07:41:05 51°13.54 2°38.67 5.1 261 14.4 102400 87
2003-05-28 07:41:09 51°13.56 2°38.68 5.1 261 14.4 102400 87
2003-05-28 07:41:15 51°13.58 2°38.7 5.1 261 14.4 102400 87
2003-05-28 07:41:21 51°13.6 2°38.71 5.1 261 14.4 102400 87
2003-05-28 07:41:25 51°13.61 2°38.72 5.1 261 14.4 102400 87
2003-05-28 07:41:35 51°13.65 2°38.74 5.1 261 14.4 102400 87
2003-05-28 07:41:41 51°13.67 2°38.75 5.1 261 14.4 102400 87
2003-05-28 07:41:45 51°13.68 2°38.76 5.1 261 14.4 102400 87
2003-05-28 07:41:49 51°13.69 2°38.77 5.1 261 14.4 102400 87
2003-05-28 07:41:53 51°13.71 2°38.78 5.1 261 14.4 102400 87
2003-05-28 07:42:01 51°13.73 2°38.79 5.1 261 14.4 102400 87
2003-05-28 07:42:05 51°13.75 2°38.8 5.1 261 14.4 102400 87
2003-05-28 07:42:09 51°13.76 2°38.81 5.1 261 14.4 102400 87
2003-05-28 07:42:15 51°13.78 2°38.81 5.1 261 14.4 102400 87
2003-05-28 07:42:19 51°13.8 2°38.82 5.1 261 14.4 102400 87
2003-05-28 07:42:25 51°13.82 2°38.83 5.1 261 14.4 102400 87
2003-05-28 07:42:29 51°13.84 2°38.83 5.1 261 14.4 102400 87
2003-05-28 07:42:35 51°13.86 2°38.84 5.1 261 14.4 102400 87
2003-05-28 07:42:39 51°13.87 2°38.85 5.1 261 14.4 102400 87
2003-05-28 07:42:45 51°13.89 2°38.85 5.1 261 14.4 102400 87
2003-05-28 07:42:49 51°13.91 2°38.85 5.1 261 14.4 102400 87
2003-05-28 07:43:03 51°13.96 2°38.84 5.1 261 14.4 102400 87
2003-05-28 07:43:07 51°13.97 2°38.84 5.1 261 14.4 102400 87
2003-05-28 07:43:13 51°13.99 2°38.83 5.1 261 14.4 102400 87
2003-05-28 07:43:17 51°14.01 2°38.82 5.1 261 14.4 102400 87
2003-05-28 07:43:23 51°14.02 2°38.8 5.1 261 14.4 102400 87
2003-05-28 07:43:29 51°14.04 2°38.78 5.1 261 14.4 102400 87
2003-05-28 07:43:33 51°14.05 2°38.76 5.1 261 14.4 102400 87
2003-05-28 07:43:37 51°14.06 2°38.74 5.1 261 14.4 102400 87
2003-05-28 07:43:51 51°14.09 2°38.67 5.1 261 14.4 102400 87